Regional Weather Roundup
Issued by NWS Charleston, SC

Current Version | Previous Version | Graphics & Text | Print | Product List | Glossary On
Versions: 1 2 3 4 5 6 7 8 9 10 11 12 13 14 15 16 17 18 19 20 21 22 23 24 25 26 27 28 29 30 31 32 33 34 35 36 37 38 39 40 41 42 43 44 45 46 47 48 49 50
410
ASUS42 KCHS 061013
RWRCHS

REGIONAL WEATHER ROUNDUP
NATIONAL WEATHER SERVICE CHARLESTON SC
600 AM EDT FRI MAY 06 2016

NOTE: "FAIR" INDICATES FEW OR NO CLOUDS BELOW 12,000 FEET WITH NO
SIGNIFICANT WEATHER AND/OR OBSTRUCTIONS TO VISIBILITY.

NOT ALL STATIONS ARE QUALITY CONTROLLED. USE DATA WITH CAUTION...
ESPECIALLY DEWPOINT OBSERVATIONS.

SCZ027-030-031-034>040-042>050-061100-
...SOUTHEAST SOUTH CAROLINA...

CITY           SKY/WX    TMP DP  RH WIND       PRES   REMARKS
N CHARLESTON   PTCLDY    49  44  83 W7        29.78R
WATERFRONT PRK   N/A     52  46  80 NW5       29.75S
MOUNT PLEASANT FAIR      52  46  82 W5        29.77R
JOHNS ISLAND   FAIR      48  45  87 W6        29.78R
PINOPOLIS        N/A     54  46  76 W13       29.68R
MONCKS CORNER  PTSUNNY   46  41  81 CALM      29.77R
SUMMERVILLE    FAIR      45  45 100 CALM      29.79R
BEAUFORT MCAS  CLEAR     49  46  90 W6        29.80R
BEAUFORT ARPT  FAIR      50  46  87 W6        29.79S
HILTON HEAD IS NOT AVBL
WALTERBORO     PTSUNNY   48  46  93 W5        29.80R
ALLENDALE      PTSUNNY   48  45  87 CALM      29.80R

...SOUTHERN MIDLANDS AND PEE DEE...

CITY           SKY/WX    TMP DP  RH WIND       PRES   REMARKS
GEORGETOWN     FAIR      46  43  87 W6        29.76R
KINGSTREE      CLOUDY    50  45  81 W5        29.75S
ORANGEBURG     CLOUDY    51  46  83 W6        29.78R
BARNWELL       CLOUDY    50  48  93 CALM      29.80S
AIKEN          CLOUDY    46  43  87 W5        29.82R
MANNING        CLOUDY    52  45  76 W3        29.76R
COLUMBIA       CLOUDY    54  45  71 W9        29.76S
SUMTER         NOT AVBL
FLORENCE       CLOUDY    52  47  83 W6        29.74R
MYRTLE BEACH   PTCLDY    48  39  71 W9        29.75R
N MYRTLE BEACH MOCLDY    48  45  89 W6        29.72R

$$

GAZ063-065-086>088-099>101-113>116-118-119-134>141-150-061100-
...SOUTHEAST GEORGIA...

CITY           SKY/WX    TMP DP  RH WIND       PRES   REMARKS
SAVANNAH ARPT  PTCLDY    49  43  80 NW7       29.82R
HUNTER AAF     NOT AVBL
FORT STEWART   NOT AVBL
STATESBORO     CLEAR     49  47  94 NW3       29.82R
SYLVANIA       SUNNY     47  47  97 NW5       29.82R
CLAXTON        FAIR      47  46  97 SW3       29.83S

...CSRA...CENTRAL AND FAR SOUTHEAST GEORGIA...

CITY           SKY/WX    TMP DP  RH WIND       PRES   REMARKS
THOMSON        CLEAR     46  45  96 W7        29.86R
AUGUSTA-BUSH   PTCLDY    46  42  86 W3        29.80S
AUGUSTA-DANIEL PTCLDY    49  41  74 NW7       29.80S
SWAINSBORO     FAIR      43  43 100 CALM      29.84R
VIDALIA        CLEAR     46  43  87 CALM      29.84R
EASTMAN        FAIR      46  42  86 CALM      29.89R
HAZLEHURST     FAIR      47  45  93 CALM      29.85R
ALMA           CLEAR     48  42  80 W3        29.85R
WAYCROSS       CLEAR     47  43  87 W5        29.85R
JESUP          FAIR      50  45  81 NW5       29.84R
BAXLEY         FAIR      46  46 100 CALM      29.84S
BRUNSWICK      PTCLDY    54  50  87 W7        29.85R
SAINT SIMONS   CLEAR     51  44  77 NW7       29.83R

$$

SCZ027-028-034-036>038-045-046-048>050-GAZ119-141-061100-
...LAKE AND SUPPLEMENTAL COASTAL OBSERVATIONS...

STATION/POSITION TIME  TEMP    WIND        PRES    WAVE   SWELL
                       AIR SEA DIR/SP/G            HT/PER HT/PER/DIR
                 (UTC) (F)     (DEG/KT/KT) (MB)    (FT/S) (FT/S/D)
WINYAH BAY       NOT AVBL
LAKE MURRAY      0900   54     290/  6/ 12 1007.5S
ACE BASIN NERRS  NOT AVBL
FORT PULASKI     0900   53 73  300/ 10/ 12 1009.1R
SAPELO ISLAND    0900   52     320/  8     1009.0S

$$

ANZ835-935-AMZ111-154-330-350-352-354-370-450-454-472-061100-
...C-MAN AND BUOY OBSERVATIONS...

STATION/POSITION TIME  TEMP    WIND        PRES    WAVE   SWELL
                       AIR SEA DIR/SP/G            HT/PER HT/PER/DIR
                 (UTC) (F)     (DEG/KT/KT) (MB)    (FT/S) (FT/S/D)
BUOY 41004       0950   58 72  310/ 19/ 23 1006.8R   5/ 6
BUOY 41008       NOT AVBL
FOLLY BEACH CMAN 0900   51     290/  6/  9 1007.9R
CAPERS NEARSHORE 0908   56 70  310/ 16/ 19 1007.0R
FRIPP NEARSHORE  0908   55 68  320/ 12/ 16 1007.7R


STATION/POSITION TIME  TEMP    WIND        PRES    WAVE   SWELL
                       AIR SEA DIR/SP/G            HT/PER HT/PER/DIR
                 (UTC) (F)     (DEG/KT/KT) (MB)    (FT/S) (FT/S/D)
5E ST. MARYS GA  0921      71                N/A     3/ 4
FRYING PAN BUOY  0900   59 72  280/ 14/ 19 1005.0R
BUOY 41025       0950   57 77  340/  6/ 10 1003.9R   5/ 8   5/ 50/ 8
CAPE LOOKOUT NC  0900   54     270/ 12/ 14 1003.7R
BUOY 41002       0950   68 73  290/ 16/ 19 1006.0R   8/ 8   7/230/ 8
BUOY 41010       0920   73 79  320/ 16/ 19 1007.5R
ST AUGUSTINE FL  1000   54 69  320/  7/  8 1011.5R


$$




USA.gov is the U.S. government's official web portal to all federal, state and local government web resources and services.